Tracking 29591 objects as of 19-Sep-2024
HD Live streaming from Space Station
objects crossing your sky now

BRO-2

Track BRO-2 now!
10-day predictions
BRO-2 is classified as:


NORAD ID: 46940
Int'l Code: 2020-085M
Perigee: 310.5 km
Apogee: 316.0 km
Inclination: 97.5 °
Period: 90.6 minutes
Semi major axis: 6684 km
RCS: Unknown
Launch date: November 20, 2020
Source: France (FR)
Launch site: Rocket Lab Launch Complex (RLLC)

Uplink (MHz):
Downlink (MHz):
Beacon (MHz):
Mode:
Call sign:
Status: Unknown

Your satellite tracking list
Your tracking list is empty




NASA's NSSDC Master Catalog

Two Line Element Set (TLE):
1 46940U 20085M   24263.14475636  .00363287  00000-0  12562-2 0  9998
2 46940  97.5287  69.8851 0004108 284.6980  75.3836 15.88626966214231
Source of the keplerian elements: AFSPC